Weather observations for the past three days for
Milwaukee, General Mitchell International Airport
Imperial (Metric)
Date Time (cdt) Wind (mph) Vis. (mi.) Weather Sky Cond. Temperature (ºF) Relative Humidity Wind Chill (°F) Heat Index (°F) Pressure Precipitation (in)
Air Dwpt 6 hour altimeter (in) sea level (mb) 1 hr 3 hr 6 hr
Max. Min.
22 05:52 S 6 3.00 Thunderstorm Light Rain Fog/Mist FEW037CB BKN100 OVC120 70 66.9 90% 29.97 1014.7 0.09
22 04:52 S 5 8.00 Light Rain FEW028 SCT110 69.1 66.9 93% 29.98 1014.8 0.02
22 03:52 E 3 1.00 Overcast FEW016 FEW027 OVC038 68 64.9 90% 30.01 1015.8 0.59 0.64
22 02:52 SE 10 1.00 Thunderstorm Rain Fog/Mist FEW060 SCT090CB OVC110 66 63 90% 30.01 1015.8 0.05
22 01:52 SW 7 1.00 Light Rain FEW050 SCT060 BKN120 BKN150 64.9 62.1 90% 30.03 1016.7
22 00:52 Calm 1.00 Overcast OVC003 63 60.1 66 62.1 90% 30.04 1017.0
21 23:52 NE 6 1.00 Overcast OVC004 62.1 60.1 93% 30.06 1017.8
21 22:52 N 10 1.00 Overcast OVC004 63 60.1 90% 30.08 1018.4
21 21:52 N 8 1.00 Fog/Mist OVC002 63 62.1 97% 30.09 1018.6
21 20:52 NE 9 1.00 Fog/Mist OVC002 63 61 93% 30.07 1018.0
21 19:52 NE 7 1.50 Fog/Mist BKN003 OVC065 64.9 62.1 90% 30.08 1018.5
21 18:52 N 5 0.50 Fog/Mist OVC002 66 63 75.9 64 90% 30.09 1018.9
21 17:52 N 10 0.75 Fog/Mist OVC002 64 62.1 93% 30.1 1019.2
21 16:52 NE 12 10.00 Overcast BKN005 OVC065 66 63 90% 30.1 1019.1
21 15:52 NE 8 10.00 Partly Cloudy FEW009 FEW065 SCT100 71.1 64.9 81% 30.11 1019.2
21 14:52 E 8 10.00 Partly Cloudy FEW009 FEW065 SCT110 71.1 64.9 81% 30.12 1019.6
21 13:52 E 9 10.00 Partly Cloudy FEW050 SCT110 73.9 66 76% 30.14 1020.4
21 12:52 E 5 10.00 Partly Cloudy SCT100 SCT120 71.1 64.9 72 64.9 81% 30.17 1021.3
21 11:52 E 5 10.00 Mostly Cloudy FEW070 BKN090 BKN250 70 64 82% 30.19 1022.0
21 10:52 E 6 10.00 Mostly Cloudy SCT095 BKN110 BKN250 70 63 79% 30.2 1022.5
21 09:52 E 6 10.00 Mostly Cloudy SCT070 BKN100 BKN250 70 63 79% 30.21 1022.9
21 08:52 E 3 10.00 Mostly Cloudy FEW080 SCT100 BKN250 69.1 62.1 78% 30.22 1023.3
21 07:52 E 6 10.00 Mostly Cloudy FEW070 BKN100 68 60.1 76% 30.23 1023.5
21 06:52 N 7 10.00 Mostly Cloudy SCT048 BKN060 64.9 59 66.9 63 81% 30.24 1023.8
21 05:52 N 6 10.00 Mostly Cloudy SCT050 SCT100 BKN250 64 57.9 81% 30.23 1023.6
21 04:52 NE 6 10.00 Partly Cloudy FEW009 FEW100 SCT250 63 57 81% 30.22 1023.1
21 03:52 N 3 10.00 Mostly Cloudy BKN009 64.9 57.9 78% 30.23 1023.5
21 02:52 Calm 9.00 Partly Cloudy FEW080 SCT100 66 57.9 75% 30.22 1023.3
21 01:52 Calm 10.00 Overcast OVC100 66 57.9 75% 30.24 1023.7
21 00:52 Calm 10.00 Overcast OVC100 66 57 66 63 73% 30.24 1023.8
20 23:52 N 3 10.00 Partly Cloudy SCT200 64.9 55 70% 30.25 1024.3
20 22:52 N 5 10.00 Partly Cloudy FEW090 SCT210 64 54 70% 30.26 1024.5
20 21:52 NE 5 10.00 A Few Clouds FEW065 FEW150 63 53.1 70% 30.27 1024.8
20 20:52 N 7 10.00 Mostly Cloudy FEW010 SCT065 BKN150 64 55.9 75% 30.26 1024.8
20 19:52 N 10 10.00 Mostly Cloudy SCT010 BKN060 BKN250 64 57 78% 30.26 1024.7
20 18:52 N 10 10.00 Overcast OVC010 64.9 57 68 64 76% 30.27 1024.9
20 17:52 N 13 G 25 10.00 Mostly Cloudy BKN007 BKN120 64 57.9 81% 30.28 1025.2
20 16:52 NE 16 G 22 10.00 Mostly Cloudy SCT005 SCT010 BKN120 66 60.1 81% 30.28 1025.1
20 15:52 N 14 G 20 10.00 Mostly Cloudy FEW005 SCT009 BKN060 BKN250 66.9 61 81% 30.28 1025.0
20 14:52 N 10 10.00 Overcast OVC005 66.9 61 81% 30.3 1025.8
20 13:52 N 13 G 22 10.00 Overcast OVC005 64.9 60.1 84% 30.3 1026.0
20 12:52 NE 13 10.00 Mostly Cloudy BKN008 68 62.1 69.1 62.1 81% 30.31 1026.0 0.05
20 11:52 N 8 10.00 Overcast OVC006 64.9 61 87% 30.32 1026.3
20 10:52 N 8 10.00 Overcast OVC006 64 60.1 87% 30.33 1026.8
20 09:52 N 12 10.00 Overcast OVC006 63 60.1 90% 30.32 1026.5 0.02 0.05
20 08:52 N 9 G 21 10.00 Light Rain OVC006 62.1 59 90% 30.32 1026.6
20 07:52 N 9 10.00 Light Rain OVC005 62.1 60.1 93% 30.31 1026.3 0.03
20 06:52 N 9 3.00 Overcast OVC003 63 60.1 70 62.1 90% 30.31 1026.0
20 05:52 N 13 G 25 0.50 Fog/Mist OVC002 62.1 60.1 93% 30.29 1025.3
20 04:52 N 13 G 22 1.00 Fog/Mist BKN002 OVC200 64.9 63 93% 30.27 1024.8
20 03:52 N 6 10.00 Overcast BKN009 OVC200 69.1 64.9 87% 30.25 1024.0
20 02:52 N 6 10.00 Mostly Cloudy FEW075 BKN200 69.1 64.9 87% 30.25 1023.9
20 01:52 N 5 10.00 A Few Clouds FEW006 FEW200 68 64.9 90% 30.25 1023.8
20 00:52 E 3 10.00 Fair CLR 70 66.9 78.1 69.1 90% 30.25 1023.8
19 23:52 N 7 10.00 A Few Clouds FEW006 70 66 87% 30.25 1023.7
19 22:52 NE 5 10.00 A Few Clouds FEW180 69.1 64.9 87% 30.24 1023.7
19 21:52 Calm 10.00 Fair CLR 72 64.9 79% 30.24 1023.5
19 20:52 NE 7 10.00 Partly Cloudy FEW110 SCT250 71.1 64.9 81% 30.22 1022.7
19 19:52 NE 8 10.00 Mostly Cloudy FEW070 SCT110 BKN250 75.9 66.9 74% 77 30.2 1022.1
19 18:52 N 13 10.00 Mostly Cloudy BKN070 BKN250 78.1 68 91.9 78.1 71% 80 30.19 1021.8 0.07
19 17:52 SE 6 10.00 Mostly Cloudy SCT065 BKN100 BKN250 81 70 69% 84 30.16 1020.8
19 16:52 E 8 10.00 Mostly Cloudy BKN060TCU BKN075 BKN250 82 68 63% 85 30.15 1020.5
19 15:52 S 8 10.00 Mostly Cloudy FEW046TCU SCT075 BKN100 87.1 70 57% 92 30.15 1020.4 0.07 0.07
19 14:52 SW 15 G 23 10.00 Mostly Cloudy SCT060 BKN075TCU BKN250 91.9 66 43% 95 30.16 1020.7
19 13:52 W 14 G 23 10.00 Mostly Cloudy SCT050 BKN250 91 66 44% 94 30.17 1020.9
19 12:52 SW 14 G 22 10.00 Mostly Cloudy FEW039 BKN250 91 68 91 79 47% 95 30.16 1020.7
19 11:52 SW 16 G 25 10.00 Partly Cloudy FEW039 SCT200 SCT250 89.1 69.1 52% 94 30.16 1020.5
19 10:52 SW 16 G 23 10.00 Partly Cloudy FEW034 SCT200 SCT250 87.1 71.1 59% 93 30.15 1020.3
19 09:52 SW 16 G 21 10.00 Partly Cloudy SCT034 SCT250 84.9 71.1 63% 90 30.15 1020.3
19 08:52 W 13 G 24 10.00 Partly Cloudy FEW032 SCT120 SCT200 84 70 63% 88 30.15 1020.1
19 07:52 SW 15 G 24 10.00 Partly Cloudy FEW050 SCT100 SCT250 81 69.1 67% 84 30.14 1019.8
19 06:52 SW 18 G 25 10.00 Partly Cloudy SCT060 SCT200 79 68 82 77 69% 81 30.12 1019.1
Date Time (cdt) Wind (mph) Vis. (mi.) Weather Sky Cond. Air Dwpt Max. Min. Relative Humidity Wind Chill (°F) Heat Index (°F) altimeter (in) sea level (mb) 1 hr 3 hr 6 hr
6 hour
Temperature (ºF) Pressure Precipitation (in)